User: anonymous   Login
Location: Nebula Knoll Observatory
(43.6666°N, 71.0000°W)
Time: 09:30:25
(UTC-04:00)
Language:

SeaSat 1 - Orbit

View from above orbital plane
View from above orbital plane
View from above satellite
View from above satellite

Ground track
Ground track

The orbit data is extracted from the following two-line orbital elements,

1 10967U 78064A   15151.05442818  .00000045  00000-0  53664-4 0  9990
2 10967 107.9956 176.9408 0001070 254.0103 106.0923 14.43390633938647
Epoch (UTC): 31 May 2015 01:18:22
Eccentricity: 0.0001070
inclination: 107.9956°
perigee height: 746 km
apogee height: 748 km
right ascension of ascending node: 176.9408°
argument of perigee: 254.0103°
revolutions per day: 14.43390633
mean anomaly at epoch: 106.0923°
orbit number at epoch: 93864

The dashed part of the orbit path shows where the satellite is in the earth's shadow,  

DLR